TimeMST,TemperatureF,Dew PointF,Humidity,Sea Level PressureIn,VisibilityMPH,Wind Direction,Wind SpeedMPH,Gust SpeedMPH,PrecipitationIn,Events,Conditions,WindDirDegrees,DateUTC
12:48 AM,17.1,14.0,88,30.55,-9999.0,East,4.6,-,N/A,,Unknown,90,2013-11-11 07:48:00
1:48 AM,16.0,12.9,88,30.56,-9999.0,East,5.8,-,0.01,,Unknown,80,2013-11-11 08:48:00
2:48 AM,15.1,12.0,88,30.58,-9999.0,East,6.9,-,0.01,,Unknown,80,2013-11-11 09:48:00
3:48 AM,14.0,10.9,88,30.58,-9999.0,East,4.6,-,N/A,,Unknown,100,2013-11-11 10:48:00
4:48 AM,14.0,10.9,88,30.61,-9999.0,East,3.5,-,N/A,,Unknown,80,2013-11-11 11:48:00
5:48 AM,12.0,10.0,92,30.63,-9999.0,East,3.5,-,N/A,,Unknown,100,2013-11-11 12:48:00
6:48 AM,10.9,8.1,88,30.65,-9999.0,East,4.6,-,N/A,,Unknown,80,2013-11-11 13:48:00
7:48 AM,8.1,6.1,92,30.68,-9999.0,ESE,3.5,-,N/A,,Unknown,120,2013-11-11 14:48:00
8:48 AM,10.0,6.1,84,30.70,-9999.0,Calm,Calm,-,N/A,,Unknown,0,2013-11-11 15:48:00
9:48 AM,15.1,10.9,84,30.69,-9999.0,SE,5.8,-,N/A,,Unknown,130,2013-11-11 16:48:00
10:48 AM,19.0,12.9,77,30.69,-9999.0,SSE,4.6,-,N/A,,Unknown,160,2013-11-11 17:48:00
11:48 AM,21.0,15.1,78,30.67,-9999.0,South,4.6,-,N/A,,Unknown,170,2013-11-11 18:48:00
12:48 PM,23.0,16.0,74,30.66,-9999.0,SSE,6.9,-,N/A,,Unknown,160,2013-11-11 19:48:00
1:48 PM,25.0,17.1,72,30.66,-9999.0,SSE,6.9,-,N/A,,Unknown,160,2013-11-11 20:48:00
2:48 PM,26.1,18.0,71,30.66,-9999.0,South,5.8,-,N/A,,Unknown,170,2013-11-11 21:48:00
3:48 PM,25.0,18.0,75,30.66,-9999.0,SSE,5.8,-,N/A,,Unknown,160,2013-11-11 22:48:00
4:48 PM,21.0,16.0,81,30.66,-9999.0,ESE,3.5,-,N/A,,Unknown,110,2013-11-11 23:48:00
5:48 PM,18.0,15.1,88,30.69,-9999.0,Calm,Calm,-,N/A,,Unknown,0,2013-11-12 00:48:00
6:48 PM,17.1,12.9,84,30.69,-9999.0,Calm,Calm,-,N/A,,Unknown,0,2013-11-12 01:48:00
7:48 PM,18.0,14.0,84,30.67,-9999.0,Calm,Calm,-,N/A,,Unknown,0,2013-11-12 02:48:00
8:48 PM,14.0,12.0,92,30.67,-9999.0,WNW,3.5,-,N/A,,Unknown,300,2013-11-12 03:48:00
9:48 PM,9.0,5.0,84,30.67,-9999.0,ESE,3.5,-,N/A,,Unknown,110,2013-11-12 04:48:00
10:48 PM,10.9,8.1,88,30.65,-9999.0,East,3.5,-,N/A,,Unknown,80,2013-11-12 05:48:00
11:48 PM,7.0,3.9,87,30.64,-9999.0,Calm,Calm,-,N/A,,Unknown,0,2013-11-12 06:48:00